Change the Weather History Date:

Tuesday, October 22, 2013

  Actual Average Record
Temperature  
Mean Temperature 50 °F -  
Max Temperature 63 °F 63 °F 79 °F (2012)
Min Temperature 37 °F 45 °F 28 °F (2006)
Degree Days  
Heating Degree Days 15    
Moisture  
Dew Point 37 °F    
Average Humidity 66    
Maximum Humidity 86    
Minimum Humidity 41    
Precipitation  
Precipitation 0.00 in - - ()
Sea Level Pressure  
Sea Level Pressure 29.99 in    
Wind  
Wind Speed 11 mph (West)    
Max Wind Speed 23 mph    
Max Gust Speed 30 mph    
Visibility 10 miles    
Events      
Averages and records for this station are not official NWS values.
T = Trace of Precipitation, MM = Missing Value Source: NWS Daily Summary

Daily Weather History Graph

Daily Weather History Graph

Search for Another Location

Airport or City:

Trip Planner

Search our weather history database for the weather conditions in past years. The results will help you decide how hot, cold, wet, or windy it might be!

Date:

Astronomy

Oct. 22, 2013 Rise Set
Actual Time 7:30 AM CDT 6:25 PM CDT
Civil Twilight 7:03 AM CDT 6:52 PM CDT
Nautical Twilight 6:32 AM CDT 7:23 PM CDT
Astronomical Twilight 6:01 AM CDT 7:54 PM CDT
Moon 9:08 PM CDT (10/22) 10:58 AM CDT (10/22)
Length of Visible Light 11h 49m
Length of Day
10h 55m
Waning Gibbous, 86% of the Moon is Illuminated
Oct 22
Waning Gibbous
Oct 26
Last Quarter
Nov 3
New
Nov 9
First Quarter
Nov 17
Full

Hourly Weather History & Observations

Time (CDT) Temp. Windchill Dew Point Humidity Pressure Visibility Wind Dir Wind Speed Gust Speed Precip Events Conditions
12:58 AM 37.0 °F 32.4 °F 32.7 °F 84% 30.06 in 10.0 mi South 5.8 mph - N/A   Clear
1:58 AM 37.6 °F 31.0 °F 33.8 °F 86% 30.03 in 10.0 mi South 9.2 mph - N/A   Mostly Cloudy
2:58 AM 39.6 °F 35.4 °F 35.4 °F 85% 30.02 in 10.0 mi SSW 5.8 mph - N/A   Mostly Cloudy
3:48 AM 42.8 °F 37.5 °F 35.6 °F 76% 30.00 in 10.0 mi SSW 9.2 mph - N/A   Overcast
3:58 AM 43.2 °F 37.9 °F 36.3 °F 77% 30.01 in 10.0 mi SSW 9.2 mph - N/A   Overcast
4:58 AM 43.3 °F 38.1 °F 37.0 °F 78% 29.99 in 10.0 mi SSW 9.2 mph - N/A   Overcast
5:49 AM 44.6 °F 38.4 °F 37.4 °F 76% 29.95 in 10.0 mi SSW 12.7 mph - N/A   Overcast
5:58 AM 44.8 °F 38.7 °F 36.9 °F 74% 29.97 in 10.0 mi SSW 12.7 mph - 0.00 in   Overcast
6:58 AM 46.4 °F 39.5 °F 35.6 °F 66% 29.95 in 10.0 mi SSW 17.3 mph - N/A   Mostly Cloudy
7:58 AM 46.6 °F - 36.7 °F 68% 29.95 in 10.0 mi SW 15.0 mph - N/A   Overcast
8:58 AM 47.7 °F - 37.4 °F 68% 29.94 in 10.0 mi SSW 13.8 mph - N/A   Mostly Cloudy
9:58 AM 50.4 °F - 38.8 °F 65% 29.95 in 10.0 mi WSW 11.5 mph - N/A   Mostly Cloudy
10:58 AM 55.8 °F - 41.0 °F 58% 29.92 in 10.0 mi WSW 11.5 mph - N/A   Scattered Clouds
11:58 AM 60.4 °F - 42.8 °F 52% 29.91 in 10.0 mi WNW 13.8 mph - N/A   Mostly Cloudy
12:58 PM 61.5 °F - 44.1 °F 53% 29.89 in 10.0 mi West 16.1 mph 25.3 mph N/A   Mostly Cloudy
1:55 PM 62.6 °F - 44.6 °F 52% 29.88 in 10.0 mi WNW 13.8 mph - N/A   Scattered Clouds
1:58 PM 63.0 °F - 44.1 °F 50% 29.89 in 10.0 mi WNW 15.0 mph - 0.00 in   Light Drizzle
2:58 PM 62.4 °F - 39.7 °F 43% 29.89 in 10.0 mi WNW 19.6 mph 26.5 mph N/A   Scattered Clouds
3:58 PM 60.1 °F - 36.1 °F 41% 29.92 in 10.0 mi NW 23.0 mph 29.9 mph N/A   Scattered Clouds
4:58 PM 57.4 °F - 36.3 °F 45% 29.96 in 10.0 mi NNW 20.7 mph 28.8 mph N/A   Scattered Clouds
5:58 PM 54.1 °F - 36.0 °F 50% 29.97 in 10.0 mi NW 13.8 mph - N/A   Scattered Clouds
6:58 PM 52.0 °F - 36.5 °F 56% 30.01 in 10.0 mi NNW 10.4 mph 20.7 mph N/A   Scattered Clouds
7:58 PM 48.7 °F - 37.2 °F 64% 30.04 in 10.0 mi NNW 13.8 mph - N/A   Partly Cloudy
8:58 PM 45.5 °F 39.2 °F 37.0 °F 72% 30.06 in 10.0 mi North 13.8 mph 23.0 mph N/A   Partly Cloudy
9:58 PM 42.3 °F 35.5 °F 34.2 °F 73% 30.07 in 10.0 mi North 12.7 mph - N/A   Partly Cloudy
10:58 PM 39.9 °F 33.4 °F 34.0 °F 79% 30.10 in 10.0 mi North 10.4 mph - N/A   Clear
11:38 PM 39.2 °F 33.0 °F 32.0 °F 75% 30.08 in 10.0 mi NNW 9.2 mph - N/A   Scattered Clouds
11:48 PM 41.0 °F 35.2 °F 32.0 °F 70% 30.09 in 10.0 mi NNW 9.2 mph - N/A   Mostly Cloudy
11:58 PM 40.5 °F 34.1 °F 33.1 °F 75% 30.09 in 10.0 mi NNW 10.4 mph - N/A   Mostly Cloudy